492  
ASUS41 KPHI 260610  
RWRPHI  
 
REGIONAL WEATHER ROUNDUP  
NATIONAL WEATHER SERVICE MOUNT HOLLY NJ  
200 AM EDT SAT JUL 26 2014  
 
NOTE: "FAIR" INDICATES FEW OR NO CLOUDS BELOW 12,000 FEET WITH NO  
SIGNIFICANT WEATHER AND/OR S TO VISIBILITY
.  
 
* = STATION DOES NOT REPORT PRECIPITATION (E.G. RAIN, SNOW, ETC.)  
OR FOG.
 
 
NJZ015>026-260700-  
SOUTHERN NEW JERSEY  
 
CITY SKY/WX TMP DP RH WIND PRES REMARKS
 
POMONA MOCLDY 62 60 93 CALM 30.02S  
6HR MIN TEMP: 62; 6HR MAX TEMP: 73;  
 
RIO GRANDE* PTCLDY 64 61 88 SW3 30.04R  
MILLVILLE PTCLDY 58 56 93 CALM 30.02S  
WRIGHTSTOWN MOCLDY 64 63 96 SW5 30.00F  
MOUNT HOLLY N/A 63 59 87 S3 30.01F  
TRENTON MOCLDY 66 58 75 SW3 30.01S  
6HR MIN TEMP: 66; 6HR MAX TEMP: 77;  
 

 
NJZ001>014-260700-  
NORTHERN NEW JERSEY  
 
CITY SKY/WX TMP DP RH WIND PRES REMARKS
 
SUSSEX PTCLDY 60 56 86 CALM 30.01S  
ANDOVER* N/A 59 58 96 CALM 30.02S  
MORRISTOWN PTCLDY 63 59 88 CALM 30.00S  
NEWARK MOCLDY 69 62 78 SW7 29.99F  
TETERBORO CLEAR 72 61 68 S3 29.98F  
CALDWELL PTCLDY 66 59 78 CALM 30.00F  
ALLAIRE* PTCLDY 66 61 82 SW6 30.01F  
TOMS RIVER* PTCLDY 61 57 88 CALM 30.02F  
 

 
PAZ043-044-047-054-055-060>062-066>071-260700-  
EASTERN PENNSYLVANIA  
 
CITY SKY/WX TMP DP RH WIND PRES REMARKS
 
PHILADELPHIA MOCLDY 69 59 70 S7 30.02S  
6HR MIN TEMP: 69; 6HR MAX TEMP: 80;  
 
NORTH PHILA MOCLDY 70 56 61 VRB3 30.03S  
BLUE BELL MOCLDY 61 57 88 CALM 30.01S  
DOYLESTOWN MOCLDY 61 57 87 CALM 30.01S  
QUAKERTOWN* MOCLDY 59 57 94 CALM 30.03S  
POTTSTOWN MOCLDY 59 55 87 CALM 30.03S  
LANCASTER MOCLDY 61 57 87 CALM 30.02S  
COATESVILLE MOCLDY 66 55 68 W3 30.03F  
READING MOCLDY 63 58 83 CALM 30.01S  
6HR MIN TEMP: 62; 6HR MAX TEMP: 76;  
 
ALLENTOWN MOCLDY 61 56 83 CALM 30.01S  
6HR MIN TEMP: 60; 6HR MAX TEMP: 75;  
 
MOUNT POCONO MOCLDY 55 52 89 CALM 30.05S  
6HR MIN TEMP: 54; 6HR MAX TEMP: 69;  
 
HAZLETON MOCLDY 55 54 94 CALM 30.07S  
WILKES BARRE MOCLDY 61 52 72 CALM 30.02S  
 

 
DEZALL-MDZ008-012-015-019-020-260700-  
DELAWARE AND EASTERN MARYLAND  
 
CITY SKY/WX TMP DP RH WIND PRES REMARKS
 
WILMINGTON MOCLDY 68 54 60 CALM 30.02S  
6HR MIN TEMP: 65; 6HR MAX TEMP: 77;  
 
DOVER PTCLDY 65 61 85 S6 30.01R  
GEORGETOWN PTCLDY 64 59 83 S8 30.03S  
6HR MIN TEMP: 64; 6HR MAX TEMP: 74;  
 
PATUXENT MOCLDY 69 62 78 S3 30.02S  
OCEAN CITY PTCLDY 63 61 93 CALM 30.02S  
WALLOPS ISLAND PTCLDY 67 62 84 CALM 30.03S  
CAMBRIDGE MOCLDY 63 59 88 SE3 30.01F  
 

 
PAZ001-021-NYZ056-072-MDZ011-DCZ001-260700-  
OTHER NEARBY LOCATIONS  
 
CITY SKY/WX TMP DP RH WIND PRES REMARKS
 
HARRISBURG CLOUDY 68 56 65 E3 30.00F  
STATE COLLEGE PTCLDY 61 55 80 CALM 30.02F  
WILLIAMSPORT PTCLDY 60 54 80 N5 30.00F  
BINGHAMTON PTCLDY 60 53 77 W5 30.02S  
NEW YORK CITY PTCLDY 71 61 70 W5 30.02F  
BALTIMORE CLOUDY 66 59 77 CALM 30.00F  
WASHINGTON DC CLOUDY 73 65 75 S7 30.01F  
 

 
 
CLICK HERE TO GO TO PREVIOUS BULLETINS.

The Nexlab PA Page
The Nexlab NJ Page
The Nexlab DE Page
The Nexlab MD Page Main Text Page